When you browse on this site, cookies collect data to enhance your experience and personalize the content and advertising you see.
Visit our Privacy Policy to learn more. By continuing to use the site, you agree to this use of cookies and data.
  • In Romania
  • List of Countries
  • For 7 days
  • Water Temperature
  • Weather Map
  • Weather Widgets
  • user-avatar
    Login

    Hourly Weather Wiktoria

    Today, 23 October, Wednesday

    Time Temperature Precipitation Wind Pressure Humidity
    00:00 +13°C° 0 mm 1 mps 754 mmHg 72%
    01:00 +12°C° 0 mm 1 mps 754 mmHg 74%
    02:00 +11°C° 0 mm 1 mps 754 mmHg 77%
    03:00 +11°C° 0 mm 1 mps 754 mmHg 79%
    04:00 +10°C° 0 mm 1 mps 753 mmHg 82%
    05:00 +12°C° 0 mm 1 mps 754 mmHg 80%
    06:00 +13°C° 0 mm 1 mps 754 mmHg 79%
    07:00 +14°C° 0 mm 1 mps 754 mmHg 77%
    08:00 +18°C° 0 mm 1 mps 754 mmHg 70%
    09:00 +19°C° 0 mm 2 mps 754 mmHg 63%
    10:00 +23°C° 0 mm 2 mps 754 mmHg 56%
    11:00 +24°C° 0 mm 2 mps 754 mmHg 49%
    12:00 +26°C° 0 mm 1 mps 753 mmHg 43%
    13:00 +27°C° 0 mm 1 mps 752 mmHg 37%
    14:00 +27°C° 0 mm 1 mps 752 mmHg 38%
    15:00 +27°C° 0 mm 1 mps 752 mmHg 38%
    16:00 +27°C° 0 mm 1 mps 751 mmHg 39%
    17:00 +25°C° 0 mm 1 mps 751 mmHg 44%
    18:00 +22°C° 0 mm 1 mps 751 mmHg 50%
    19:00 +19°C° 0 mm 2 mps 751 mmHg 56%
    20:00 +18°C° 0 mm 2 mps 752 mmHg 56%
    21:00 +17°C° 0 mm 2 mps 752 mmHg 56%
    22:00 +16°C° 0 mm 2 mps 752 mmHg 56%
    23:00 +15°C° 0 mm 2 mps 752 mmHg 58%

    Tomorrow, 24 October, Thursday

    Time Temperature Precipitation Wind Pressure Humidity
    00:00 +15°C° 0 mm 2 mps 751 mmHg 59%
    01:00 +14°C° 0 mm 2 mps 751 mmHg 61%
    02:00 +14°C° 0 mm 2 mps 751 mmHg 63%
    03:00 +13°C° 0 mm 2 mps 751 mmHg 65%
    04:00 +13°C° 0 mm 2 mps 750 mmHg 67%
    05:00 +14°C° 0 mm 2 mps 750 mmHg 67%
    06:00 +14°C° 0 mm 3 mps 750 mmHg 67%
    07:00 +16°C° 0 mm 3 mps 751 mmHg 66%
    08:00 +18°C° 0 mm 4 mps 750 mmHg 61%
    09:00 +21°C° 0 mm 4 mps 750 mmHg 55%
    10:00 +25°C° 0 mm 4 mps 750 mmHg 49%
    11:00 +27°C° 0 mm 4 mps 749 mmHg 44%
    12:00 +29°C° 0 mm 4 mps 749 mmHg 38%
    13:00 +33°C° 0 mm 3 mps 748 mmHg 32%
    14:00 +33°C° 0 mm 3 mps 747 mmHg 35%
    15:00 +33°C° 0 mm 3 mps 746 mmHg 38%
    16:00 +33°C° 0 mm 3 mps 745 mmHg 41%
    17:00 +30°C° 0 mm 4 mps 745 mmHg 40%
    18:00 +28°C° 0 mm 5 mps 744 mmHg 40%
    19:00 +26°C° 0 mm 6 mps 744 mmHg 40%
    20:00 +24°C° 0 mm 6 mps 744 mmHg 39%
    21:00 +23°C° 0 mm 5 mps 744 mmHg 37%
    22:00 +22°C° 0 mm 5 mps 743 mmHg 36%
    23:00 +23°C° 0 mm 5 mps 743 mmHg 35%

    Day after tomorrow, 25 October, Friday

    Time Temperature Precipitation Wind Pressure Humidity
    00:00 +23°C° 0 mm 5 mps 743 mmHg 33%
    01:00 +23°C° 0 mm 5 mps 742 mmHg 31%
    02:00 +21°C° 0.2 mm 4 mps 742 mmHg 46%
    03:00 +19°C° 0.2 mm 4 mps 743 mmHg 61%
    04:00 +17°C° 0.2 mm 4 mps 743 mmHg 75%
    05:00 +17°C° 0.1 mm 3 mps 743 mmHg 79%
    06:00 +17°C° 0.1 mm 3 mps 743 mmHg 83%
    07:00 +16°C° 0.1 mm 3 mps 744 mmHg 87%
    08:00 +17°C° 0.1 mm 3 mps 744 mmHg 78%
    09:00 +19°C° 0.1 mm 4 mps 744 mmHg 69%
    10:00 +20°C° 0.1 mm 4 mps 744 mmHg 60%
    11:00 +21°C° 0 mm 4 mps 744 mmHg 54%
    12:00 +22°C° 0 mm 4 mps 743 mmHg 47%
    13:00 +23°C° 0 mm 5 mps 743 mmHg 41%
    14:00 +23°C° 0 mm 5 mps 742 mmHg 39%
    15:00 +23°C° 0 mm 5 mps 742 mmHg 38%
    16:00 +23°C° 0 mm 6 mps 742 mmHg 36%
    17:00 +21°C° 0 mm 5 mps 742 mmHg 42%
    18:00 +19°C° 0 mm 5 mps 742 mmHg 47%
    19:00 +15°C° 0 mm 5 mps 742 mmHg 53%
    20:00 +13°C° 0 mm 4 mps 742 mmHg 57%
    21:00 +12°C° 0 mm 3 mps 742 mmHg 61%
    22:00 +10°C° 0 mm 2 mps 742 mmHg 65%
    23:00 +9°C° 0 mm 2 mps 742 mmHg 70%

    26 October, Saturday

    Time Temperature Precipitation Wind Pressure Humidity
    00:00 +9°C° 0 mm 2 mps 743 mmHg 74%
    01:00 +8°C° 0 mm 2 mps 743 mmHg 79%
    02:00 +8°C° 0 mm 2 mps 743 mmHg 81%
    03:00 +7°C° 0 mm 3 mps 743 mmHg 83%
    04:00 +7°C° 0 mm 3 mps 743 mmHg 84%
    05:00 +7°C° 0 mm 4 mps 744 mmHg 79%
    06:00 +8°C° 0 mm 5 mps 745 mmHg 74%
    07:00 +10°C° 0 mm 7 mps 745 mmHg 69%
    08:00 +11°C° 0 mm 6 mps 745 mmHg 62%
    09:00 +13°C° 0 mm 6 mps 745 mmHg 55%
    10:00 +15°C° 0 mm 6 mps 746 mmHg 48%
    11:00 +16°C° 0 mm 7 mps 746 mmHg 45%
    12:00 +17°C° 0 mm 7 mps 746 mmHg 42%
    13:00 +18°C° 0 mm 8 mps 746 mmHg 39%
    14:00 +18°C° 0 mm 8 mps 745 mmHg 39%
    15:00 +17°C° 0 mm 8 mps 745 mmHg 40%
    16:00 +17°C° 0 mm 8 mps 745 mmHg 40%
    17:00 +15°C° 0 mm 7 mps 746 mmHg 47%
    18:00 +13°C° 0 mm 5 mps 746 mmHg 54%
    19:00 +11°C° 0 mm 4 mps 747 mmHg 60%
    20:00 +10°C° 0 mm 4 mps 747 mmHg 67%
    21:00 +9°C° 0 mm 3 mps 748 mmHg 74%
    22:00 +8°C° 0 mm 3 mps 749 mmHg 81%
    23:00 +7°C° 0 mm 3 mps 749 mmHg 84%

    27 October, Sunday

    Time Temperature Precipitation Wind Pressure Humidity
    00:00 +6°C° 0 mm 2 mps 749 mmHg 88%
    01:00 +5°C° 0 mm 2 mps 749 mmHg 92%
    02:00 +5°C° 0 mm 2 mps 749 mmHg 92%
    03:00 +5°C° 0 mm 1 mps 749 mmHg 92%
    04:00 +5°C° 0 mm 1 mps 749 mmHg 92%
    05:00 +6°C° 0 mm 1 mps 749 mmHg 87%
    06:00 +7°C° 0 mm 1 mps 750 mmHg 83%
    07:00 +9°C° 0 mm 1 mps 750 mmHg 78%
    08:00 +10°C° 0 mm 2 mps 750 mmHg 69%
    09:00 +12°C° 0 mm 3 mps 750 mmHg 60%
    10:00 +14°C° 0 mm 3 mps 750 mmHg 52%
    11:00 +16°C° 0 mm 3 mps 750 mmHg 51%
    12:00 +16°C° 0 mm 3 mps 750 mmHg 50%
    13:00 +15°C° 0 mm 4 mps 750 mmHg 49%
    14:00 +17°C° 0 mm 3 mps 750 mmHg 48%
    15:00 +17°C° 0 mm 3 mps 750 mmHg 47%
    16:00 +18°C° 0 mm 3 mps 750 mmHg 46%
    17:00 +16°C° 0 mm 3 mps 751 mmHg 54%
    18:00 +14°C° 0 mm 2 mps 751 mmHg 63%
    19:00 +12°C° 0 mm 2 mps 752 mmHg 71%
    20:00 +12°C° 0 mm 2 mps 753 mmHg 71%
    21:00 +12°C° 0 mm 2 mps 753 mmHg 72%
    22:00 +12°C° 0 mm 2 mps 754 mmHg 72%
    23:00 +9°C° 0 mm 2 mps 754 mmHg 79%

    28 October, Monday

    Time Temperature Precipitation Wind Pressure Humidity
    00:00 +8°C° 0 mm 2 mps 754 mmHg 85%
    01:00 +7°C° 0 mm 3 mps 754 mmHg 92%
    02:00 +7°C° 0 mm 3 mps 754 mmHg 92%
    03:00 +5°C° 0 mm 3 mps 754 mmHg 93%
    04:00 +5°C° 0 mm 3 mps 754 mmHg 93%
    05:00 +7°C° 0 mm 3 mps 755 mmHg 88%
    06:00 +8°C° 0 mm 3 mps 755 mmHg 83%
    07:00 +9°C° 0 mm 3 mps 755 mmHg 78%
    08:00 +13°C° 0 mm 2 mps 755 mmHg 68%
    09:00 +15°C° 0 mm 1 mps 755 mmHg 58%
    10:00 +19°C° 0 mm 1 mps 755 mmHg 47%
    11:00 +20°C° 0 mm 1 mps 754 mmHg 43%
    12:00 +22°C° 0 mm 1 mps 754 mmHg 39%
    13:00 +21°C° 0 mm 0 mps 754 mmHg 35%
    14:00 +21°C° 0 mm 0 mps 753 mmHg 34%
    15:00 +21°C° 0 mm 0 mps 753 mmHg 33%
    16:00 +23°C° 0 mm 1 mps 752 mmHg 31%
    17:00 +21°C° 0 mm 1 mps 752 mmHg 38%
    18:00 +18°C° 0 mm 1 mps 753 mmHg 44%
    19:00 +15°C° 0 mm 1 mps 753 mmHg 50%
    20:00 +14°C° 0 mm 1 mps 753 mmHg 54%
    21:00 +13°C° 0 mm 1 mps 753 mmHg 57%
    22:00 +12°C° 0 mm 1 mps 754 mmHg 61%
    23:00 +10°C° 0 mm 2 mps 754 mmHg 63%
    Show more